Vertical_Velocity
1 1 0 -0 -0 0 1 0 0 -0 -1 -1 -1 -1 -1 0 1 0 -1 -0 1 2 2 1 1 1 2 1 1 1 2 2 1 0 -1 -1 -1 -1 -1 -1 -3 -3 -0 10 14 15 13 11 8 4 -1 0 5 10 14 16 16 14 12 6 3 1 0 -0 0 3 9 11 11 10 10 6 2 -1 -1 -1 -0 0 0 0 -0 -1 -1 -1 -1 -1
1 1 1 0 0 0 1 1 1 1 1 -0 -1 -1 -1 -1 -1 -0 -0 -0 -0 0 0 -0 -0 0 0 1 0 -0 -0 -0 -0 -1 -2 -2 -2 -2 0 3 1 -1 1 19 29 31 25 21 17 12 5 -0 -0 4 11 15 17 16 14 10 6 3 1 -0 2 6 12 12 11 12 11 6 1 -1 -1 -0 0 1 1 -0 -1 -1 -1 -1 -2 -2
1 1 1 1 0 0 0 0 0 1 1 1 1 -0 -1 -1 -1 -1 -2 -1 -1 -1 -0 -1 -1 -1 -1 -1 -1 -1 -1 -1 -1 -2 -3 -3 -3 -2 3 8 6 2 -1 9 20 27 28 26 26 24 16 6 -0 -1 4 10 14 16 15 12 9 6 4 3 6 10 14 12 13 13 11 4 0 -1 -0 0 0 0 -0 -1 -1 -2 -2 -2 -2 -2
-0 0 1 1 1 0 0 -0 -0 -0 0 1 1 1 1 -0 -1 -2 -2 -2 -2 -1 -0 -0 -0 -1 -2 -2 -2 -2 -2 -2 -2 -2 -3 -2 -0 3 6 9 8 5 1 2 5 10 14 19 24 27 25 13 4 -1 1 5 10 14 15 13 11 9 7 9 12 14 15 14 13 12 7 2 -0 -0 0 0 -0 -0 -1 -2 -2 -2 -2 -1 -0 0
-0 -0 -0 0 1 1 1 0 -0 -0 -1 -0 1 1 2 1 1 -0 -1 -1 -1 -1 -0 -0 -0 -1 -2 -2 -3 -3 -2 -2 -2 -2 -3 1 5 7 8 7 6 5 4 3 2 1 -1 2 8 14 18 13 8 5 5 6 8 11 14 13 12 11 11 13 16 17 16 16 13 9 3 1 -0 -0 0 -0 -1 -1 -2 -2 -1 -1 0 1 1 1
0 -0 -0 -0 0 1 1 1 1 0 -0 -1 -0 0 1 2 2 2 2 1 0 -0 -0 -0 -0 -1 -1 -2 -2 -2 -2 -2 -2 -2 -1 4 7 8 6 5 5 7 9 9 8 5 -0 -3 -3 -1 2 3 5 8 10 10 10 11 13 13 13 13 14 15 16 17 18 16 12 7 2 1 1 0 -0 -1 -2 -2 -2 -1 1 2 2 2 1 1
-0 -0 -1 -0 0 1 1 1 1 1 1 0 0 0 1 2 3 4 4 4 2 1 0 -0 -0 -1 -1 -1 -2 -2 -1 -1 -1 -0 0 3 5 5 2 4 5 7 9 12 15 15 12 7 2 -3 -6 -3 2 7 11 11 12 12 13 13 13 13 14 15 15 16 17 14 10 7 5 4 2 0 -1 -2 -1 -1 0 2 2 2 2 1 1 0
-2 -1 -1 -1 0 1 1 1 2 2 2 2 1 1 1 2 3 4 4 4 3 2 1 1 0 -0 -1 -1 -1 -1 -1 -1 -0 1 1 3 3 2 -0 1 1 1 2 4 10 16 22 21 15 7 -1 0 4 9 11 12 13 13 13 12 12 12 12 13 14 14 14 10 9 9 10 7 3 0 -1 -1 -0 1 2 2 2 2 1 1 0 0
-3 -2 -1 -1 -0 1 1 1 1 2 3 2 2 1 1 1 1 2 3 2 2 2 2 2 2 2 1 0 -0 -0 -1 -0 0 1 2 2 1 -0 -1 -2 -2 -3 -2 -2 2 8 16 20 19 14 8 9 11 12 12 14 15 14 12 10 9 9 10 12 13 13 10 8 9 12 12 7 3 0 -0 0 1 2 2 1 1 1 1 1 0 -0
-4 -3 -2 -1 -1 0 1 1 1 2 2 3 3 2 2 5 3 1 1 1 1 1 2 2 2 2 2 1 1 0 -0 0 1 2 2 1 0 -1 -2 -2 -3 -3 -2 -2 0 3 8 11 12 11 11 14 14 14 13 15 15 13 9 7 6 7 10 12 13 12 8 8 11 12 9 4 1 0 1 1 1 1 1 1 1 1 1 0 -0 -0
-4 -4 -2 -2 -1 0 1 2 2 2 2 6 7 9 16 26 19 7 0 -0 -0 0 1 1 1 1 1 1 1 0 1 1 2 2 2 1 1 -0 -1 -2 -2 -2 -1 -0 1 3 5 6 6 6 9 13 15 14 14 16 15 11 7 4 5 7 10 12 13 12 10 12 12 10 5 2 1 1 1 1 1 1 0 0 0 0 0 -0 -1 -1
-3 -4 -3 -2 -1 -1 -0 1 1 2 3 7 6 5 8 18 20 15 5 2 1 -0 -0 -1 -1 -2 -2 -1 -0 0 1 2 2 3 3 2 1 0 -0 -1 -1 -1 -1 -0 1 2 4 5 4 6 9 14 16 16 17 17 14 9 4 3 4 8 10 11 12 12 13 13 11 7 3 2 2 2 2 2 1 1 1 1 0 -0 -1 -1 -1 -0
-2 -3 -3 -2 -1 -1 -1 -0 0 1 3 5 4 1 -2 2 6 9 8 5 3 1 0 -0 -1 -2 -4 -4 -2 -0 1 2 2 2 2 2 1 1 0 -0 -1 -1 -0 1 2 4 6 7 8 10 12 16 19 20 20 18 13 8 2 2 5 9 10 10 11 12 14 11 8 5 3 3 3 3 3 2 2 1 1 0 -0 -1 -1 -1 -0 -0
-2 -2 -3 -2 -1 -1 -0 0 0 1 1 2 2 1 -2 -2 -1 1 4 5 5 4 3 4 4 4 4 0 -2 -1 1 1 1 1 1 0 -0 0 0 -0 -0 1 2 6 7 8 8 10 12 13 15 17 19 20 19 16 12 7 2 4 7 10 11 10 11 12 11 8 5 3 3 3 3 3 3 2 1 1 0 -0 -1 -1 -1 -1 -0 -0
-2 -2 -3 -3 -2 -1 -1 0 1 1 1 1 1 0 -1 -2 -3 -3 -2 -0 2 2 3 4 6 10 16 12 5 -0 -0 0 0 0 -0 -1 -1 -1 0 3 5 7 8 10 9 9 9 11 13 15 15 16 17 16 14 11 9 6 3 5 9 12 13 12 12 10 8 4 3 2 2 2 2 3 2 2 1 0 -0 -1 -1 -1 -1 -1 -0 -0
-1 -1 -2 -2 -2 -2 -1 -0 1 1 2 1 1 0 -0 -1 -3 -4 -5 -4 -3 -1 -0 1 4 10 18 17 11 4 1 0 -0 0 1 2 2 2 3 5 7 9 9 8 7 5 6 8 10 11 13 14 13 12 10 7 5 4 3 4 8 11 13 13 12 9 5 2 1 1 2 2 2 2 2 1 0 -1 -1 -2 -2 -1 -1 -1 -0 -0
1 0 -0 -0 -1 -1 -1 -1 0 1 1 1 1 1 1 -0 -1 -2 -4 -5 -5 -4 -3 -2 0 4 10 14 13 10 8 7 5 3 2 4 4 4 4 4 4 5 6 5 4 4 4 5 6 7 9 10 10 10 9 7 5 3 2 2 4 7 11 12 10 7 3 1 1 1 1 2 2 2 1 -1 -1 -2 -2 -2 -2 -1 -1 -0 0 1
2 2 1 1 0 0 -0 0 0 0 0 -0 -0 -0 1 1 1 -0 -2 -3 -4 -5 -5 -4 -2 -1 2 5 7 8 9 12 12 11 9 7 5 4 4 3 3 2 3 4 4 4 4 5 6 7 7 8 9 9 9 8 7 5 4 3 3 4 7 8 7 4 2 1 1 1 2 2 1 0 -1 -2 -3 -3 -3 -2 -1 -1 -1 -0 1 1
3 3 2 1 1 1 0 1 1 1 1 -0 -1 -2 -1 0 1 1 0 -1 -2 -4 -4 -4 -4 -3 -1 -0 1 2 4 7 10 12 15 15 12 8 6 5 3 2 2 3 4 5 5 4 5 5 6 7 8 8 8 8 8 8 8 7 6 5 6 5 3 2 1 1 2 2 2 2 2 1 -1 -2 -3 -3 -2 -1 -1 -1 -0 0 1 1
2 2 2 2 2 1 1 1 1 2 2 1 -0 -2 -3 -2 -1 0 1 1 -0 -2 -3 -3 -3 -3 -2 -2 -1 -0 1 3 5 7 9 11 13 15 14 13 11 8 5 4 4 5 5 4 4 5 6 7 7 7 7 8 8 10 11 11 11 9 8 5 2 1 1 1 1 2 3 4 3 2 0 -1 -2 -2 -1 -1 -1 -0 -0 0 1 1
0 1 1 2 2 1 1 1 1 2 3 3 2 0 -1 -2 -2 -1 -0 0 0 -0 -1 -2 -2 -2 -1 -1 -2 -2 -1 -0 1 2 4 4 4 6 9 12 14 15 13 9 6 4 5 6 7 6 6 6 5 5 4 4 5 6 7 9 10 11 10 8 6 5 4 3 4 5 6 6 5 4 1 -0 -1 -1 -0 -0 -0 -0 -0 -0 -0 0
-1 -1 -0 -0 0 1 1 1 1 1 2 3 3 3 2 0 -0 -1 -1 -0 -0 -0 -1 -1 -1 -0 0 0 -0 -1 -1 -1 -1 -0 0 1 1 1 2 3 5 8 11 10 9 9 10 13 13 11 9 6 5 4 3 3 3 3 4 5 7 7 8 8 8 7 7 7 8 8 8 7 5 3 1 -0 -1 -1 -0 -1 -1 -1 -1 -0 -0 -0
-0 -1 -1 -1 -1 -1 -0 -0 0 0 1 2 3 4 3 2 1 0 -0 -0 -0 -1 -1 -1 -1 0 1 1 1 0 -1 -1 -2 -1 -1 -1 -0 0 1 1 1 2 3 5 7 11 16 21 21 19 12 7 4 2 3 3 2 2 2 3 4 5 6 7 7 7 8 8 8 8 7 6 4 2 0 -1 -1 -1 -1 -1 -1 -1 -0 0 0 0
1 0 -0 -1 -1 -1 -1 -1 -1 -1 -1 0 1 2 3 3 2 1 1 1 0 -0 -1 -1 -1 -1 -0 1 2 1 0 -1 -2 -2 -2 -2 -2 -1 1 1 0 -0 0 0 2 5 11 16 17 15 9 3 -0 -1 -0 1 1 1 1 1 2 4 6 8 8 8 8 8 7 6 5 4 3 2 0 -0 -0 -0 -1 -1 -1 -1 -0 0 1 1
1 1 1 0 -0 -1 -1 -1 -1 -1 -1 -1 -1 0 1 1 2 1 1 1 1 1 0 -1 -1 -2 -2 -1 1 1 0 -0 -1 -1 -2 -3 -3 -2 0 1 1 -0 -1 -1 -1 -0 1 3 3 2 -0 -1 -2 -2 -2 -1 1 2 2 0 -0 0 2 3 4 5 5 5 5 4 4 4 3 2 1 1 0 -0 -1 -1 -1 -1 -1 0 1 1
1 1 1 1 0 -0 -0 -1 -1 -1 -1 -1 -1 -1 -0 -0 0 0 0 1 1 1 0 -0 -1 -2 -2 -2 -1 -1 -0 0 0 -0 -1 -2 -3 -3 -2 1 1 1 -1 -1 -1 -1 -1 -1 -1 -1 -1 -2 -2 -2 -2 -1 -0 1 2 1 1 -0 -1 -0 0 1 1 1 1 2 3 3 3 3 2 1 0 -0 -1 -2 -2 -1 -1 0 1 1
-0 -0 -0 -0 -0 -0 -0 -0 -1 -1 -1 -1 -1 -1 -1 -1 -0 -0 -0 -0 -0 -0 -0 -1 -1 -1 -2 -2 -2 -2 -1 -0 0 0 -1 -1 -2 -3 -3 -1 -0 0 -0 -1 -1 -1 -1 -2 -2 -2 -1 -1 -1 -1 -2 -1 -1 -1 0 1 2 2 2 2 1 1 0 -0 -0 -0 0 1 1 1 1 0 -0 -1 -2 -2 -2 -1 -0 1 1 1
-1 -1 -1 -1 -1 -1 -1 -1 -1 -1 -1 -1 -1 -1 -1 -1 -1 -1 -1 -0 -0 -0 -0 -0 -1 -1 -2 -2 -2 -3 -2 -1 -1 -0 -1 -1 -1 -3 -3 -2 -1 -1 -1 -1 -1 -1 -1 -2 -2 -2 -2 -1 -1 -1 -1 -1 -1 -1 -1 0 1 2 3 3 2 1 -0 -1 -1 -1 -1 -1 -1 -1 -1 -1 -2 -2 -3 -3 -2 -1 0 2 2 2
-2 -2 -2 -2 -2 -2 -2 -2 -2 -2 -1 -1 -1 -1 -1 -0 -1 -1 -1 -0 -0 -0 -1 -0 -0 -0 -1 -2 -2 -3 -2 -2 -2 -2 -2 -1 -1 -2 -2 -1 -1 -1 -0 -1 -2 -2 -1 -1 -1 -1 -1 -1 -0 0 0 -0 -1 -1 -1 -0 1 2 3 3 2 1 -0 -1 -1 -2 -2 -2 -2 -1 -1 -2 -3 -3 -3 -3 -2 -0 1 2 2 2
-2 -2 -2 -3 -3 -3 -3 -3 -3 -3 -2 -2 -2 -2 -1 -1 -1 -1 -1 -0 -0 -1 -1 -1 -0 0 0 -0 -1 -2 -2 -2 -2 -3 -2 -2 -2 -2 -1 -0 0 -0 0 0 -0 -0 0 0 0 0 -0 -0 0 1 1 1 1 0 -0 -0 0 1 2 2 1 0 -1 -1 -1 -1 -2 -1 -1 -1 -1 -2 -2 -3 -3 -2 -1 0 2 2 2 1
-1 -1 -2 -2 -3 -3 -3 -3 -4 -4 -4 -3 -3 -3 -2 -2 -1 -1 -1 -0 -1 -1 -1 -1 -1 -0 0 0 -0 -1 -2 -2 -2 -2 -2 -2 -3 -2 -1 0 -0 -1 -0 1 2 1 1 1 1 1 1 -0 -0 -0 1 1 2 1 1 -0 -0 -0 -0 0 -0 -0 -0 -0 -1 -1 -1 -0 0 0 -0 -1 -2 -2 -2 -2 -1 1 2 2 2 1
-1 -1 -1 -1 -2 -2 -2 -3 -3 -4 -4 -4 -4 -4 -4 -3 -3 -2 -2 -1 -1 -1 -1 -1 -1 -1 -0 0 1 0 -1 -1 -2 -2 -2 -3 -3 -3 -2 -0 -1 -2 -1 1 2 2 1 1 1 1 1 0 -0 -1 -0 0 1 1 1 -0 -1 -1 -1 -1 -1 -1 -0 0 0 1 1 1 1 1 1 -0 -1 -2 -2 -1 -0 1 2 2 1 0
-1 -1 -1 -1 -1 -1 -1 -2 -3 -3 -4 -4 -4 -5 -5 -4 -4 -4 -3 -2 -2 -2 -1 -2 -2 -2 -1 -0 0 0 0 -0 -0 -0 -1 -2 -3 -4 -3 -2 -2 -2 -2 -0 1 1 1 0 1 1 2 1 0 -0 -1 -1 -0 -0 -0 -0 -1 -1 -1 -1 -1 -0 -0 1 1 1 2 2 2 1 1 0 -1 -1 -2 -1 -0 1 1 1 1 -0
-1 -1 -1 -1 -1 -1 -1 -1 -1 -2 -3 -3 -4 -4 -5 -5 -5 -5 -5 -4 -4 -3 -3 -2 -3 -3 -3 -2 -2 -1 -0 0 1 1 0 -1 -2 -3 -3 -2 -2 -2 -2 -1 -0 0 0 -1 -0 1 2 2 1 0 -0 -1 -1 -1 -1 -1 -1 -2 -2 -1 -1 -0 0 1 2 2 2 2 2 1 1 0 -1 -1 -2 -1 -1 0 1 1 1 -0
-1 -1 -1 -1 -1 -1 -1 -1 -1 -1 -2 -2 -3 -3 -4 -4 -5 -5 -5 -5 -5 -4 -4 -3 -3 -3 -3 -3 -4 -4 -3 -2 -0 1 1 0 -1 -2 -2 -2 -1 -1 -2 -2 -1 -1 -1 -2 -1 -0 1 2 1 1 0 -0 -0 -1 -1 -1 -1 -2 -2 -1 -0 0 1 2 2 2 2 2 2 1 1 -0 -1 -2 -2 -2 -1 0 1 1 1 0
-1 -1 -1 -1 -1 -1 -1 -1 -1 -1 -1 -1 -2 -2 -3 -3 -4 -5 -5 -5 -5 -5 -5 -5 -4 -4 -3 -3 -3 -4 -5 -4 -3 -1 -0 -0 -1 -1 -2 -1 -0 -0 -1 -2 -2 -1 -1 -2 -2 -1 0 1 1 0 -0 -0 -0 -0 -1 -1 -1 -1 -1 -1 -0 0 1 2 3 3 3 2 2 1 1 0 -1 -1 -2 -1 -1 0 1 1 1 0
-1 -1 -1 -0 -0 -0 -0 -1 -1 -1 -1 -1 -1 -1 -1 -2 -3 -3 -4 -4 -5 -5 -5 -5 -5 -5 -4 -4 -4 -4 -4 -4 -4 -3 -2 -2 -2 -2 -2 -2 -1 -0 1 -0 -1 -1 -1 -1 -1 -1 -0 0 -0 -1 -1 -1 -0 0 -0 -0 -1 -1 -1 -0 0 1 2 2 3 3 3 2 2 1 1 0 -0 -1 -1 -1 -0 1 1 1 1 0
-0 -1 -1 -1 -0 0 0 -0 -0 -0 -0 -0 -0 -1 -1 -1 -2 -2 -3 -3 -4 -4 -4 -5 -5 -5 -5 -4 -4 -4 -4 -4 -4 -4 -4 -4 -3 -3 -3 -3 -3 -1 1 1 -0 -1 -1 -0 -1 -1 -1 -1 -1 -2 -2 -1 -0 -0 -0 -1 -1 -0 -0 0 1 1 1 2 2 3 2 2 1 1 1 1 0 -0 -1 -1 -0 1 2 1 1 0
-0 -1 -1 -1 -1 -0 -0 -0 -0 -0 0 0 0 -0 -0 -1 -1 -2 -2 -3 -3 -4 -4 -4 -4 -4 -4 -4 -4 -4 -4 -4 -4 -4 -4 -4 -4 -4 -3 -4 -4 -3 -1 -0 -0 -0 -0 -0 -0 -1 -1 -2 -2 -2 -1 -0 -0 -0 -0 -1 -1 -0 0 1 1 1 1 1 2 2 2 2 1 1 1 0 -0 -0 -1 -1 -0 1 2 1 1 0
-1 -1 -1 -2 -2 -1 -1 -1 -1 -0 -0 -0 -0 -0 0 -0 -1 -1 -2 -2 -3 -3 -4 -4 -4 -4 -4 -3 -3 -3 -3 -3 -3 -3 -3 -3 -3 -3 -3 -4 -4 -4 -3 -3 -2 -1 -0 -1 -1 -1 -2 -2 -2 -2 -2 -1 -0 0 0 0 -0 -0 0 0 1 1 1 1 1 2 2 1 1 1 1 0 -0 -1 -1 -1 -0 0 1 1 1 0
-1 -2 -2 -2 -2 -2 -2 -2 -1 -1 -1 -1 -1 -1 -1 -0 -0 -1 -1 -2 -2 -3 -4 -4 -5 -5 -5 -4 -3 -3 -3 -3 -3 -3 -3 -3 -3 -3 -3 -3 -3 -4 -4 -4 -3 -2 -1 -1 -1 -2 -2 -2 -2 -2 -2 -2 -1 0 1 0 -0 -1 -1 -0 0 1 1 1 1 1 1 1 1 1 1 -0 -0 -0 -0 -0 -0 0 0 1 1 0
-2 -2 -3 -3 -3 -3 -4 -3 -3 -2 -2 -1 -1 -1 -2 -1 -1 -0 -1 -1 -2 -3 -3 -3 -4 -5 -6 -6 -5 -4 -3 -3 -3 -3 -3 -3 -3 -2 -2 -2 -3 -3 -3 -4 -4 -4 -3 -2 -2 -2 -2 -2 -2 -2 -3 -2 -1 -0 0 0 -0 -1 -2 -1 -0 1 1 1 1 1 0 0 -0 -0 -0 -0 -1 -0 -0 -1 -1 -0 0 0 0 0
-3 -3 -3 -3 -3 -4 -4 -4 -4 -4 -3 -3 -3 -3 -3 -2 -1 -1 -1 -1 -1 -2 -2 -3 -3 -3 -4 -6 -7 -6 -5 -4 -3 -3 -3 -3 -3 -2 -2 -2 -2 -2 -2 -3 -4 -4 -4 -3 -2 -2 -2 -2 -2 -2 -3 -2 -2 -1 0 1 1 0 -1 -1 -0 -0 -0 1 1 0 -0 -0 -0 -1 -1 -1 -1 -1 -1 -1 -1 -0 0 0 0 0
-3 -3 -3 -4 -4 -4 -4 -4 -4 -4 -4 -3 -4 -4 -4 -3 -2 -2 -2 -2 -2 -1 -2 -2 -3 -3 -4 -5 -6 -6 -7 -6 -5 -4 -3 -3 -3 -3 -3 -2 -2 -2 -1 -2 -3 -4 -4 -3 -3 -2 -2 -1 -1 -1 -2 -2 -2 -1 -0 1 1 1 -1 -1 -1 -1 -0 1 1 0 -0 -0 -0 -1 -1 -1 -1 -1 -1 -1 -1 -0 0 1 1 1
-3 -4 -4 -4 -4 -4 -4 -5 -5 -5 -4 -4 -4 -4 -5 -4 -4 -3 -3 -3 -3 -3 -2 -2 -2 -4 -5 -6 -5 -5 -6 -7 -6 -5 -5 -5 -4 -3 -3 -3 -2 -2 -1 -1 -2 -2 -3 -3 -3 -3 -2 -1 -1 -1 -1 -1 -1 -1 -1 -0 0 0 -0 -0 -1 -1 1 2 1 1 0 0 -0 -1 -1 -1 -1 -1 -1 -1 -0 0 1 1 1 1
-4 -4 -5 -5 -4 -4 -5 -5 -5 -5 -5 -5 -5 -5 -5 -4 -4 -4 -4 -4 -4 -4 -4 -3 -2 -2 -5 -6 -6 -6 -6 -7 -7 -7 -6 -6 -6 -5 -4 -3 -2 -2 -1 -1 -1 -1 -2 -3 -3 -3 -2 -1 -0 -0 -1 -1 -1 -1 -1 -1 -0 0 0 0 0 0 1 1 1 1 1 0 -0 -0 -1 -1 -1 -1 -1 -1 0 1 1 1 1 1
-4 -4 -5 -5 -5 -5 -6 -5 -5 -5 -5 -5 -5 -5 -5 -5 -5 -5 -5 -5 -4 -4 -5 -5 -3 -2 -3 -5 -6 -6 -6 -7 -7 -7 -7 -7 -7 -7 -6 -5 -4 -2 -1 -0 -0 -1 -1 -2 -2 -2 -1 -0 -0 -1 -1 -1 -0 -0 -1 -1 -1 -0 -0 -1 -1 -0 1 1 1 1 1 1 0 -0 -0 -0 -0 -0 -1 -0 0 1 1 1 1 1
-3 -4 -4 -5 -5 -5 -6 -6 -5 -5 -5 -6 -6 -6 -6 -5 -5 -5 -6 -6 -6 -5 -5 -5 -5 -4 -4 -5 -5 -5 -5 -6 -6 -7 -7 -7 -8 -8 -7 -6 -5 -4 -2 -1 -0 -0 -0 -1 -1 -1 -1 -0 -1 -1 -1 -0 -0 -0 -1 -1 -1 -1 -1 -1 -1 -0 1 1 1 1 1 1 1 0 -0 -0 -0 -0 -0 -0 0 1 1 1 1 1
-3 -3 -4 -4 -4 -4 -5 -6 -5 -5 -5 -6 -6 -6 -7 -6 -5 -5 -6 -7 -7 -6 -6 -5 -5 -5 -5 -6 -6 -6 -6 -6 -6 -6 -6 -6 -7 -7 -8 -7 -6 -5 -3 -2 -0 0 0 0 0 -0 -0 0 -0 -0 -0 -0 -0 -0 -1 -1 -1 -1 -1 -2 -1 -0 1 1 1 1 1 1 0 0 0 0 0 0 -0 0 0 0 0 1 1 1
-3 -3 -3 -3 -4 -4 -5 -5 -5 -5 -5 -6 -6 -6 -7 -7 -7 -6 -6 -7 -7 -7 -6 -6 -5 -5 -6 -6 -6 -6 -6 -6 -7 -7 -7 -6 -5 -6 -7 -7 -6 -5 -4 -2 -0 1 1 1 1 1 0 1 1 1 1 -0 -0 -0 -0 -1 -1 -1 -1 -1 -1 -0 1 1 1 1 0 0 -0 -0 0 1 1 0 0 0 0 0 0 1 1 2
-3 -3 -3 -3 -3 -4 -4 -5 -5 -5 -5 -6 -6 -6 -6 -7 -7 -8 -7 -7 -7 -7 -8 -7 -6 -5 -6 -7 -7 -7 -6 -6 -7 -8 -8 -6 -5 -4 -6 -6 -5 -4 -3 -2 -0 1 2 2 2 1 1 1 1 1 1 0 0 0 1 -0 -1 -1 -1 -1 -1 0 1 1 1 0 0 0 -0 -0 1 1 1 1 0 0 0 0 0 1 1 2
Height
5611 5611 5611 5611 5611 5611 5611 5611 5612 5613 5613 5614 5615 5615 5616 5617 5618 5620 5621 5623 5626 5628 5630 5632 5634 5636 5638 5641 5643 5645 5647 5650 5653 5655 5657 5659 5661 5662 5664 5666 5668 5671 5675 5679 5681 5681 5681 5681 5683 5684 5685 5685 5685 5685 5686 5687 5688 5690 5691 5693 5694 5695 5696 5697 5698 5700 5701 5701 5702 5703 5703 5703 5703 5703 5703 5704 5705 5706 5706 5706 5706 5706 5706 5706 5707 5707
5613 5613 5612 5613 5613 5613 5614 5614 5614 5615 5616 5616 5617 5618 5618 5619 5621 5622 5624 5626 5627 5629 5631 5633 5635 5637 5639 5641 5644 5646 5648 5651 5653 5655 5657 5659 5661 5662 5664 5666 5668 5671 5675 5679 5681 5681 5679 5679 5681 5683 5685 5685 5685 5685 5686 5687 5688 5690 5691 5691 5692 5693 5694 5696 5697 5698 5699 5700 5701 5701 5702 5701 5701 5701 5702 5703 5703 5704 5704 5704 5704 5705 5705 5705 5706 5706
5615 5615 5615 5615 5615 5615 5616 5616 5616 5617 5617 5618 5619 5620 5621 5621 5623 5624 5626 5627 5629 5631 5633 5635 5636 5638 5640 5642 5644 5646 5649 5651 5653 5655 5657 5659 5660 5662 5663 5665 5666 5669 5672 5674 5677 5678 5677 5677 5679 5682 5683 5684 5684 5684 5685 5686 5687 5689 5690 5690 5691 5691 5692 5694 5695 5696 5697 5698 5700 5700 5700 5699 5699 5700 5701 5702 5702 5703 5703 5703 5703 5703 5704 5704 5705 5705
5616 5616 5616 5616 5617 5617 5617 5618 5618 5619 5619 5620 5621 5621 5622 5624 5625 5626 5627 5629 5631 5632 5634 5636 5637 5639 5641 5643 5645 5647 5649 5651 5653 5655 5656 5659 5660 5661 5662 5663 5665 5667 5669 5671 5672 5674 5674 5674 5676 5679 5681 5681 5681 5682 5683 5684 5686 5687 5688 5689 5689 5690 5691 5692 5693 5694 5695 5696 5697 5698 5697 5697 5698 5699 5700 5701 5701 5701 5701 5701 5701 5702 5702 5703 5703 5703
5619 5619 5619 5618 5618 5619 5619 5620 5620 5621 5621 5621 5622 5623 5624 5625 5626 5628 5629 5631 5632 5634 5635 5637 5638 5640 5642 5644 5646 5647 5649 5651 5653 5655 5656 5658 5659 5660 5660 5662 5663 5665 5667 5669 5671 5671 5671 5671 5673 5675 5677 5678 5679 5680 5681 5683 5684 5685 5686 5686 5687 5687 5689 5690 5691 5692 5693 5695 5695 5695 5695 5696 5697 5698 5698 5699 5699 5700 5700 5700 5701 5701 5701 5701 5701 5701
5621 5621 5621 5621 5620 5620 5621 5621 5622 5622 5623 5623 5624 5625 5626 5627 5628 5629 5631 5632 5633 5635 5636 5637 5639 5641 5642 5644 5646 5647 5649 5651 5653 5654 5656 5657 5658 5658 5660 5661 5662 5664 5667 5669 5671 5672 5672 5672 5672 5673 5674 5675 5676 5678 5680 5681 5681 5682 5683 5684 5684 5686 5687 5688 5690 5691 5692 5692 5693 5693 5694 5695 5696 5696 5697 5697 5698 5698 5698 5699 5699 5700 5700 5700 5700 5700
5624 5623 5623 5622 5622 5622 5622 5623 5623 5624 5624 5625 5626 5626 5627 5628 5630 5631 5632 5633 5634 5635 5636 5638 5639 5641 5642 5644 5646 5647 5649 5650 5652 5653 5655 5656 5657 5658 5659 5661 5662 5663 5665 5668 5671 5672 5673 5674 5674 5674 5673 5673 5675 5677 5679 5679 5679 5680 5680 5681 5682 5684 5685 5687 5688 5689 5690 5691 5691 5692 5693 5693 5694 5695 5695 5696 5696 5697 5697 5697 5698 5698 5698 5698 5698 5698
5626 5625 5625 5624 5624 5624 5624 5624 5624 5625 5626 5627 5627 5628 5629 5630 5631 5632 5633 5634 5635 5636 5637 5638 5640 5641 5642 5644 5646 5647 5648 5650 5651 5652 5654 5655 5656 5658 5659 5660 5661 5662 5663 5665 5667 5670 5672 5674 5675 5674 5673 5673 5674 5676 5677 5677 5677 5677 5678 5679 5681 5682 5684 5685 5686 5687 5688 5689 5691 5691 5691 5692 5692 5693 5694 5694 5695 5695 5696 5696 5696 5696 5696 5696 5696 5696
5627 5626 5626 5626 5625 5625 5625 5625 5626 5626 5627 5628 5628 5629 5630 5631 5632 5633 5633 5634 5635 5636 5637 5639 5640 5641 5642 5644 5645 5646 5648 5649 5651 5652 5653 5654 5655 5656 5658 5659 5660 5661 5663 5664 5665 5666 5670 5672 5672 5672 5672 5672 5673 5674 5675 5676 5676 5676 5677 5678 5679 5681 5682 5683 5684 5685 5686 5688 5689 5689 5690 5690 5691 5691 5692 5692 5693 5693 5694 5694 5694 5695 5695 5695 5694 5694
5629 5628 5627 5627 5627 5626 5626 5626 5627 5627 5628 5629 5630 5631 5631 5632 5632 5633 5634 5635 5636 5636 5637 5639 5640 5641 5642 5643 5644 5646 5647 5648 5650 5651 5652 5653 5654 5655 5656 5657 5658 5660 5662 5663 5664 5665 5667 5669 5670 5670 5671 5672 5673 5674 5674 5674 5674 5675 5676 5676 5678 5679 5681 5681 5682 5684 5685 5686 5687 5687 5688 5688 5689 5690 5690 5691 5691 5691 5692 5692 5692 5693 5692 5692 5692 5692
5630 5630 5629 5629 5629 5628 5628 5628 5628 5629 5629 5630 5631 5631 5631 5634 5634 5633 5634 5634 5636 5637 5638 5639 5640 5641 5642 5643 5644 5645 5646 5647 5648 5650 5651 5652 5653 5654 5655 5656 5656 5658 5659 5661 5662 5664 5665 5667 5667 5668 5669 5671 5671 5672 5672 5672 5672 5674 5674 5675 5676 5678 5679 5680 5681 5682 5683 5685 5685 5686 5686 5686 5687 5688 5688 5689 5690 5690 5690 5691 5691 5691 5690 5690 5690 5690
5631 5631 5631 5631 5630 5630 5630 5630 5630 5630 5630 5630 5630 5630 5631 5632 5633 5634 5634 5634 5635 5637 5638 5638 5639 5640 5641 5641 5642 5644 5645 5646 5647 5649 5649 5651 5651 5653 5654 5654 5656 5657 5658 5660 5661 5662 5663 5664 5665 5665 5666 5667 5667 5668 5669 5669 5671 5672 5672 5673 5675 5676 5677 5678 5679 5681 5682 5682 5683 5683 5684 5685 5686 5686 5687 5687 5688 5688 5689 5689 5689 5688 5688 5688 5688 5687
5631 5632 5632 5632 5631 5631 5631 5631 5631 5631 5630 5629 5629 5630 5631 5632 5633 5634 5634 5635 5636 5637 5638 5639 5639 5639 5640 5640 5641 5642 5644 5645 5646 5648 5649 5649 5650 5651 5652 5653 5655 5657 5658 5659 5660 5661 5661 5662 5662 5662 5662 5664 5665 5666 5667 5668 5669 5670 5671 5672 5673 5675 5676 5677 5678 5679 5680 5681 5681 5681 5682 5683 5684 5685 5685 5686 5686 5687 5687 5687 5687 5686 5686 5686 5686 5686
5631 5632 5632 5632 5632 5632 5632 5631 5631 5631 5631 5630 5630 5630 5631 5633 5634 5634 5635 5636 5636 5637 5638 5639 5639 5639 5640 5640 5640 5641 5642 5644 5645 5647 5648 5649 5650 5651 5651 5653 5655 5657 5657 5657 5658 5658 5659 5659 5660 5660 5661 5662 5663 5665 5666 5667 5667 5668 5669 5670 5672 5673 5674 5675 5676 5677 5678 5678 5679 5680 5681 5681 5682 5683 5684 5685 5685 5686 5686 5685 5685 5685 5684 5684 5684 5684
5631 5631 5632 5632 5632 5632 5632 5632 5632 5631 5631 5631 5631 5631 5632 5633 5633 5634 5635 5635 5636 5637 5637 5637 5638 5638 5639 5640 5640 5641 5642 5643 5644 5645 5647 5649 5650 5651 5651 5652 5654 5655 5655 5654 5654 5655 5656 5656 5657 5658 5659 5661 5662 5663 5665 5665 5666 5666 5668 5669 5671 5671 5673 5674 5675 5676 5676 5677 5678 5678 5679 5680 5681 5681 5682 5683 5684 5684 5684 5684 5683 5683 5683 5682 5682 5682
5631 5631 5631 5632 5632 5632 5632 5632 5632 5631 5631 5632 5632 5632 5632 5632 5633 5634 5634 5635 5636 5636 5637 5636 5636 5637 5637 5638 5639 5640 5641 5642 5643 5644 5646 5647 5649 5651 5651 5652 5652 5652 5652 5652 5652 5653 5654 5655 5656 5657 5658 5660 5661 5662 5663 5663 5664 5665 5667 5668 5669 5670 5671 5672 5674 5674 5675 5676 5676 5677 5678 5678 5679 5680 5681 5681 5682 5682 5682 5682 5681 5681 5681 5681 5681 5681
5631 5632 5632 5632 5632 5632 5632 5632 5632 5631 5631 5631 5632 5632 5632 5632 5633 5633 5634 5635 5635 5636 5636 5636 5636 5636 5636 5637 5638 5640 5641 5642 5643 5644 5645 5646 5647 5648 5649 5650 5650 5651 5651 5651 5652 5652 5653 5654 5655 5656 5657 5659 5660 5661 5661 5662 5663 5664 5666 5667 5668 5669 5669 5670 5671 5673 5674 5675 5675 5676 5676 5677 5678 5679 5680 5680 5681 5681 5681 5680 5680 5680 5680 5679 5679 5679
5632 5632 5632 5632 5632 5632 5632 5632 5631 5631 5631 5631 5631 5632 5632 5632 5633 5633 5634 5634 5634 5635 5635 5635 5636 5636 5636 5637 5638 5640 5641 5642 5643 5644 5645 5645 5646 5646 5647 5647 5648 5649 5650 5650 5651 5651 5652 5653 5654 5655 5656 5657 5659 5659 5660 5661 5662 5663 5664 5666 5667 5667 5667 5668 5670 5671 5672 5673 5674 5675 5675 5676 5677 5677 5678 5678 5679 5679 5679 5679 5679 5678 5678 5678 5677 5677
5632 5632 5632 5632 5632 5632 5632 5632 5631 5631 5631 5631 5631 5631 5631 5632 5632 5633 5633 5634 5634 5634 5635 5635 5635 5636 5636 5637 5638 5639 5640 5641 5642 5643 5644 5646 5646 5646 5646 5646 5647 5648 5648 5649 5650 5651 5651 5652 5653 5655 5656 5656 5657 5658 5659 5660 5661 5662 5663 5664 5665 5665 5666 5667 5668 5669 5671 5671 5672 5673 5674 5674 5675 5676 5676 5677 5677 5677 5677 5677 5677 5677 5676 5676 5676 5675
5632 5632 5632 5632 5632 5632 5632 5632 5632 5631 5631 5631 5631 5631 5631 5631 5631 5632 5632 5633 5634 5634 5634 5634 5635 5635 5636 5636 5637 5638 5639 5640 5641 5641 5642 5643 5645 5646 5646 5647 5647 5647 5648 5648 5649 5650 5651 5652 5653 5654 5654 5655 5656 5656 5657 5658 5660 5661 5661 5662 5663 5664 5665 5666 5667 5668 5669 5670 5671 5671 5672 5673 5674 5674 5675 5675 5676 5676 5676 5676 5676 5675 5675 5674 5674 5673
5632 5632 5632 5632 5632 5632 5631 5632 5632 5631 5631 5631 5631 5631 5631 5631 5631 5631 5631 5632 5633 5633 5634 5634 5634 5635 5635 5636 5637 5637 5638 5639 5640 5640 5641 5641 5642 5643 5644 5645 5646 5647 5648 5648 5649 5649 5651 5652 5653 5653 5653 5653 5654 5655 5655 5656 5657 5658 5659 5660 5661 5663 5664 5665 5666 5667 5667 5668 5669 5670 5671 5671 5672 5672 5673 5674 5674 5674 5674 5674 5674 5673 5673 5672 5672 5671
5633 5632 5632 5632 5632 5632 5632 5632 5631 5631 5631 5631 5631 5631 5631 5631 5631 5631 5631 5631 5632 5632 5633 5634 5634 5634 5635 5635 5636 5636 5637 5638 5639 5639 5640 5640 5641 5642 5643 5643 5644 5645 5646 5647 5648 5649 5650 5651 5651 5651 5652 5652 5653 5654 5654 5655 5656 5657 5658 5659 5660 5661 5662 5664 5665 5666 5666 5667 5668 5669 5669 5670 5670 5671 5671 5672 5672 5672 5672 5672 5672 5671 5671 5670 5670 5669
5633 5633 5633 5632 5632 5632 5632 5631 5631 5631 5631 5631 5631 5631 5631 5631 5631 5631 5631 5631 5631 5632 5632 5633 5634 5634 5634 5634 5635 5635 5636 5637 5638 5638 5639 5639 5640 5641 5641 5642 5643 5644 5644 5645 5646 5647 5648 5649 5650 5651 5651 5651 5652 5653 5653 5654 5655 5656 5657 5658 5659 5660 5661 5662 5663 5664 5665 5666 5666 5667 5667 5668 5668 5669 5669 5670 5670 5671 5671 5670 5670 5669 5668 5668 5668 5667
5633 5633 5633 5632 5632 5632 5632 5631 5631 5631 5631 5631 5630 5630 5630 5630 5630 5631 5631 5631 5631 5631 5632 5632 5633 5633 5634 5634 5634 5634 5635 5636 5636 5637 5638 5638 5639 5640 5641 5641 5642 5643 5643 5644 5644 5645 5646 5647 5648 5649 5649 5650 5650 5651 5652 5653 5654 5655 5656 5656 5658 5659 5660 5661 5662 5662 5663 5664 5665 5665 5665 5666 5666 5667 5667 5668 5668 5668 5668 5668 5667 5666 5666 5666 5666 5665
5632 5632 5632 5632 5632 5632 5632 5631 5631 5631 5631 5631 5630 5630 5630 5630 5630 5630 5630 5630 5631 5631 5631 5631 5632 5632 5633 5633 5633 5634 5634 5634 5635 5636 5636 5637 5637 5638 5639 5640 5641 5641 5642 5642 5643 5643 5644 5645 5646 5646 5647 5648 5649 5650 5651 5652 5653 5653 5654 5655 5655 5656 5657 5658 5659 5660 5660 5661 5662 5662 5663 5663 5664 5665 5665 5666 5666 5666 5666 5665 5665 5664 5664 5664 5664 5663
5632 5632 5631 5631 5631 5631 5631 5631 5631 5631 5631 5631 5630 5630 5630 5630 5629 5629 5629 5630 5630 5630 5630 5630 5631 5631 5631 5632 5632 5633 5633 5633 5634 5634 5635 5636 5636 5636 5637 5638 5639 5640 5641 5641 5642 5642 5643 5644 5645 5646 5646 5647 5648 5649 5650 5650 5651 5651 5652 5653 5654 5654 5655 5656 5656 5657 5658 5659 5659 5660 5661 5661 5662 5662 5663 5663 5663 5663 5663 5663 5662 5662 5661 5661 5661 5661
5631 5631 5631 5631 5631 5631 5631 5631 5631 5631 5631 5630 5630 5630 5630 5630 5630 5629 5629 5629 5629 5629 5629 5629 5630 5630 5631 5631 5631 5632 5632 5632 5632 5633 5633 5634 5634 5635 5636 5636 5637 5638 5639 5640 5641 5641 5642 5643 5644 5645 5645 5646 5646 5647 5648 5648 5649 5650 5651 5651 5652 5653 5654 5655 5656 5656 5656 5657 5657 5658 5658 5659 5659 5660 5660 5661 5661 5661 5660 5660 5660 5659 5659 5659 5659 5659
5629 5629 5629 5629 5629 5629 5629 5629 5630 5630 5630 5630 5629 5629 5629 5629 5629 5629 5628 5629 5629 5628 5628 5628 5628 5629 5629 5629 5630 5631 5631 5631 5631 5631 5632 5632 5633 5633 5634 5635 5636 5636 5637 5638 5638 5639 5640 5641 5642 5642 5643 5644 5645 5645 5646 5647 5648 5648 5649 5650 5651 5651 5652 5653 5654 5654 5655 5655 5656 5656 5656 5657 5657 5658 5658 5658 5658 5658 5658 5657 5657 5657 5657 5657 5656 5656
5627 5627 5627 5627 5627 5628 5628 5628 5628 5628 5628 5628 5628 5628 5628 5628 5628 5628 5628 5628 5628 5628 5627 5627 5627 5627 5628 5628 5628 5629 5630 5630 5630 5630 5630 5631 5631 5631 5632 5633 5634 5635 5636 5636 5636 5637 5637 5638 5639 5640 5641 5642 5643 5643 5644 5645 5646 5646 5647 5648 5648 5649 5650 5651 5652 5652 5653 5653 5654 5654 5654 5655 5655 5655 5656 5656 5656 5656 5656 5655 5655 5655 5655 5655 5654 5654
5626 5626 5626 5626 5626 5626 5626 5626 5626 5626 5626 5627 5627 5627 5627 5627 5627 5627 5627 5627 5627 5627 5626 5626 5626 5626 5626 5626 5627 5627 5627 5628 5628 5628 5629 5629 5630 5630 5631 5631 5632 5632 5634 5634 5635 5635 5636 5636 5637 5638 5639 5640 5641 5641 5642 5643 5644 5644 5645 5646 5646 5647 5648 5649 5650 5651 5651 5651 5652 5652 5652 5652 5653 5653 5653 5654 5654 5653 5653 5653 5653 5652 5652 5652 5652 5652
5624 5624 5624 5623 5623 5623 5624 5624 5624 5624 5625 5625 5625 5625 5625 5625 5625 5625 5625 5625 5625 5626 5625 5625 5625 5625 5625 5625 5625 5626 5626 5626 5626 5626 5627 5628 5628 5628 5629 5629 5630 5630 5631 5632 5632 5633 5634 5635 5636 5636 5637 5638 5638 5639 5640 5641 5641 5642 5643 5643 5644 5645 5646 5647 5648 5649 5649 5650 5650 5650 5650 5651 5651 5651 5651 5651 5651 5651 5651 5651 5651 5651 5651 5651 5650 5650
5622 5622 5622 5621 5621 5621 5621 5621 5621 5622 5622 5622 5623 5623 5623 5623 5623 5623 5623 5623 5623 5624 5624 5624 5624 5624 5624 5624 5624 5624 5624 5624 5625 5625 5625 5626 5626 5626 5627 5627 5627 5628 5628 5630 5630 5631 5632 5632 5633 5634 5635 5636 5636 5637 5638 5638 5639 5640 5641 5641 5642 5643 5644 5645 5646 5646 5647 5647 5648 5648 5648 5649 5649 5649 5649 5649 5649 5649 5649 5649 5649 5649 5649 5648 5648 5648
5620 5620 5620 5620 5619 5619 5619 5619 5619 5619 5619 5620 5620 5620 5621 5621 5621 5621 5621 5621 5621 5621 5621 5622 5622 5622 5622 5622 5622 5622 5623 5623 5623 5622 5623 5623 5624 5624 5625 5625 5625 5625 5626 5627 5627 5628 5629 5630 5631 5632 5633 5633 5634 5635 5636 5636 5637 5638 5638 5639 5640 5640 5641 5642 5643 5644 5644 5645 5646 5646 5646 5646 5647 5647 5647 5647 5647 5647 5647 5647 5647 5647 5647 5646 5646 5646
5618 5618 5618 5618 5617 5617 5617 5617 5617 5617 5617 5617 5617 5617 5618 5618 5618 5619 5619 5619 5619 5619 5619 5619 5619 5619 5619 5620 5620 5620 5621 5621 5621 5621 5621 5621 5621 5622 5622 5622 5622 5623 5623 5624 5624 5626 5626 5627 5628 5629 5630 5631 5632 5632 5633 5634 5635 5636 5636 5637 5637 5638 5639 5640 5641 5641 5642 5643 5643 5644 5644 5645 5645 5645 5645 5645 5645 5645 5645 5645 5645 5645 5645 5645 5645 5645
5616 5616 5616 5616 5616 5615 5615 5615 5615 5614 5614 5614 5614 5614 5615 5615 5616 5616 5616 5616 5616 5616 5616 5617 5617 5617 5617 5617 5617 5617 5618 5618 5618 5618 5619 5619 5619 5620 5620 5620 5620 5620 5620 5621 5621 5622 5623 5624 5625 5626 5627 5628 5629 5630 5631 5631 5632 5633 5634 5634 5635 5636 5636 5637 5638 5639 5640 5640 5641 5641 5642 5642 5643 5643 5643 5643 5643 5643 5643 5643 5643 5643 5643 5643 5643 5643
5614 5614 5614 5614 5614 5613 5613 5613 5613 5612 5612 5612 5612 5612 5612 5612 5612 5613 5613 5613 5614 5614 5614 5614 5614 5614 5615 5615 5615 5615 5615 5615 5615 5616 5616 5616 5616 5617 5617 5617 5618 5618 5618 5618 5618 5619 5620 5621 5622 5623 5624 5625 5626 5627 5628 5629 5630 5631 5631 5632 5633 5633 5634 5635 5636 5636 5637 5638 5639 5639 5640 5641 5641 5641 5641 5641 5641 5641 5641 5641 5641 5641 5641 5641 5641 5641
5612 5612 5612 5612 5611 5611 5611 5611 5611 5611 5610 5610 5610 5609 5609 5609 5609 5610 5610 5610 5611 5611 5611 5611 5611 5612 5612 5612 5612 5612 5612 5612 5612 5612 5613 5613 5613 5614 5614 5615 5615 5615 5615 5615 5616 5616 5617 5617 5618 5620 5621 5622 5622 5623 5624 5626 5627 5628 5628 5629 5630 5631 5632 5632 5633 5634 5635 5636 5636 5637 5638 5638 5639 5639 5640 5640 5640 5640 5640 5639 5639 5639 5639 5639 5639 5639
5609 5609 5609 5609 5609 5609 5609 5609 5609 5609 5608 5608 5608 5607 5607 5607 5606 5606 5607 5607 5607 5608 5608 5608 5609 5609 5609 5609 5609 5610 5610 5610 5610 5610 5610 5610 5610 5611 5611 5611 5611 5612 5612 5612 5613 5613 5614 5614 5615 5616 5617 5618 5619 5620 5621 5623 5624 5625 5626 5626 5628 5629 5629 5630 5631 5632 5633 5633 5634 5635 5636 5636 5637 5637 5638 5638 5638 5638 5637 5637 5637 5637 5637 5637 5637 5637
5607 5607 5607 5607 5607 5607 5607 5606 5606 5606 5606 5606 5606 5605 5605 5605 5604 5604 5604 5604 5604 5604 5605 5605 5605 5606 5606 5606 5606 5607 5607 5607 5607 5607 5607 5607 5607 5608 5608 5608 5608 5608 5609 5609 5610 5610 5611 5611 5612 5613 5614 5615 5616 5617 5619 5620 5621 5622 5623 5624 5625 5626 5627 5628 5629 5630 5631 5631 5632 5633 5633 5634 5635 5635 5636 5636 5636 5636 5636 5635 5635 5636 5636 5636 5636 5636
5605 5605 5604 5604 5604 5604 5604 5604 5604 5604 5604 5603 5603 5603 5603 5602 5602 5602 5601 5601 5601 5601 5601 5601 5602 5602 5602 5603 5603 5603 5604 5604 5604 5604 5604 5604 5604 5605 5605 5605 5605 5605 5605 5606 5606 5607 5607 5608 5609 5610 5611 5611 5613 5614 5615 5617 5618 5619 5620 5621 5623 5624 5625 5626 5627 5627 5628 5629 5630 5631 5631 5632 5633 5633 5633 5634 5634 5634 5634 5633 5633 5634 5634 5634 5634 5634
5602 5602 5602 5602 5601 5601 5601 5601 5601 5601 5601 5601 5601 5601 5600 5600 5600 5600 5599 5599 5598 5598 5598 5598 5598 5598 5599 5599 5599 5600 5600 5600 5601 5601 5601 5601 5601 5601 5602 5602 5602 5602 5602 5602 5602 5603 5604 5604 5605 5606 5607 5608 5609 5611 5612 5614 5615 5616 5618 5619 5620 5621 5622 5623 5624 5625 5626 5626 5627 5628 5629 5630 5631 5631 5631 5631 5631 5631 5631 5631 5631 5631 5632 5632 5632 5633
5599 5599 5599 5599 5599 5598 5598 5598 5598 5598 5598 5598 5598 5598 5598 5597 5597 5597 5597 5596 5596 5596 5595 5595 5595 5595 5595 5595 5596 5596 5596 5596 5596 5597 5597 5597 5598 5598 5598 5598 5598 5599 5599 5599 5599 5599 5600 5601 5602 5602 5604 5605 5606 5607 5609 5610 5612 5613 5615 5616 5617 5618 5620 5621 5621 5622 5623 5624 5625 5626 5626 5627 5628 5629 5629 5629 5629 5629 5629 5629 5630 5630 5630 5631 5631 5631
5597 5597 5596 5596 5596 5596 5596 5595 5595 5595 5595 5595 5595 5595 5595 5594 5594 5594 5594 5594 5594 5593 5592 5592 5592 5592 5592 5592 5592 5592 5592 5592 5593 5593 5593 5593 5594 5594 5594 5595 5595 5595 5595 5595 5596 5596 5596 5597 5598 5599 5600 5601 5603 5604 5605 5606 5608 5610 5611 5613 5614 5616 5617 5618 5619 5620 5621 5621 5622 5623 5624 5625 5626 5626 5627 5627 5627 5627 5627 5627 5628 5628 5628 5629 5629 5630
5594 5594 5594 5593 5593 5593 5593 5593 5592 5592 5592 5592 5592 5591 5591 5591 5591 5591 5591 5591 5591 5590 5590 5589 5589 5588 5588 5588 5588 5588 5588 5588 5588 5589 5589 5589 5589 5590 5590 5591 5591 5591 5591 5591 5592 5592 5593 5593 5594 5595 5596 5598 5599 5600 5601 5603 5605 5606 5608 5610 5611 5613 5614 5615 5616 5617 5618 5619 5620 5621 5622 5623 5623 5624 5624 5625 5625 5625 5625 5625 5626 5626 5626 5627 5627 5628
5591 5591 5591 5591 5590 5590 5590 5590 5590 5590 5589 5589 5589 5589 5588 5588 5588 5588 5588 5588 5587 5587 5586 5586 5586 5585 5584 5584 5584 5584 5584 5584 5584 5584 5585 5585 5585 5585 5586 5586 5586 5587 5587 5587 5587 5588 5589 5589 5590 5591 5592 5594 5595 5596 5598 5600 5601 5603 5605 5606 5608 5610 5611 5612 5614 5615 5616 5616 5617 5618 5619 5620 5621 5621 5622 5622 5623 5623 5623 5623 5624 5624 5625 5625 5626 5626
5589 5588 5588 5588 5587 5587 5587 5587 5586 5586 5586 5586 5586 5586 5586 5585 5585 5585 5584 5584 5584 5584 5583 5583 5582 5582 5581 5580 5580 5580 5580 5580 5580 5580 5580 5580 5580 5581 5581 5581 5582 5582 5583 5583 5583 5584 5584 5585 5586 5587 5589 5590 5591 5593 5594 5596 5598 5600 5601 5603 5605 5606 5608 5609 5611 5612 5613 5614 5615 5616 5617 5618 5618 5619 5620 5620 5621 5621 5621 5621 5622 5622 5623 5623 5624 5624
5586 5586 5585 5585 5585 5584 5584 5584 5584 5584 5583 5583 5583 5583 5583 5582 5582 5581 5581 5581 5581 5581 5580 5580 5580 5579 5577 5577 5576 5576 5576 5575 5576 5576 5576 5576 5576 5576 5576 5576 5577 5577 5578 5578 5579 5579 5580 5581 5582 5583 5585 5586 5587 5589 5591 5593 5595 5596 5598 5600 5602 5603 5605 5606 5608 5609 5611 5612 5613 5613 5614 5615 5616 5617 5617 5618 5618 5619 5619 5619 5620 5620 5621 5621 5622 5623
5583 5582 5582 5582 5581 5581 5581 5581 5581 5581 5580 5580 5580 5580 5580 5579 5579 5579 5578 5578 5577 5577 5577 5576 5576 5575 5574 5574 5573 5572 5571 5571 5571 5571 5571 5571 5571 5571 5571 5572 5572 5572 5573 5574 5574 5575 5576 5576 5577 5579 5581 5582 5584 5585 5587 5589 5591 5593 5595 5597 5599 5601 5602 5603 5605 5606 5608 5609 5610 5611 5612 5613 5614 5615 5615 5616 5616 5617 5617 5617 5618 5618 5619 5620 5621 5621
5579 5579 5579 5579 5578 5578 5578 5578 5577 5577 5577 5577 5577 5576 5576 5576 5576 5576 5575 5575 5574 5574 5573 5573 5572 5572 5571 5570 5569 5569 5568 5567 5567 5567 5567 5566 5566 5566 5566 5567 5567 5568 5568 5569 5570 5570 5571 5572 5573 5575 5576 5578 5580 5582 5584 5586 5588 5590 5591 5594 5596 5597 5599 5600 5602 5604 5605 5606 5607 5608 5610 5611 5611 5612 5613 5614 5614 5615 5615 5616 5616 5617 5617 5618 5619 5620
5576 5576 5576 5576 5575 5575 5575 5574 5574 5574 5573 5573 5573 5573 5573 5573 5572 5572 5572 5571 5571 5571 5570 5570 5569 5568 5567 5566 5566 5565 5564 5563 5563 5562 5562 5562 5562 5561 5561 5562 5562 5563 5564 5564 5565 5566 5567 5568 5569 5571 5572 5574 5576 5578 5581 5582 5584 5586 5588 5591 5592 5594 5596 5598 5599 5601 5602 5604 5605 5606 5607 5608 5609 5610 5611 5611 5612 5613 5614 5614 5615 5615 5616 5616 5617 5618
5572 5572 5572 5572 5572 5571 5571 5571 5571 5570 5570 5570 5570 5570 5569 5569 5569 5569 5568 5568 5568 5567 5566 5566 5566 5565 5564 5563 5562 5561 5561 5560 5559 5558 5557 5557 5557 5557 5556 5557 5557 5558 5559 5560 5561 5561 5563 5564 5566 5567 5569 5571 5573 5575 5577 5579 5581 5583 5586 5587 5590 5591 5593 5595 5596 5598 5600 5601 5602 5603 5605 5606 5607 5608 5609 5610 5610 5611 5611 5612 5613 5614 5614 5615 5616 5616